METEOR 2-10

Satellite information

Favourite Embed

Satellite Type and Status

PAYLOADIN ORBIT

Key statistics

Satellite METEOR 2-10 at a glance.

Uptime

15387

Days in orbit

Revolutions

≈ 14.3

Per day

Orbit

LEO

Low Earth Orbit

Inclination

81.2

Latest

Satellite identification and parameters

Extended collection of information and parameters for METEOR 2-10.

Object identification

Identified? True

Debris? False

Object name: METEOR 2-10

International designator: 1983-109A

Object number (NORAD): 14452

Object ID (CCSDS): 14452

Country: COMMONWEALTH OF INDEPENDENT STATES (CIS)

Current information (Y/N): Y

RCS size: LARGE

Orbital parameters

Period: 100.896 minutes

Inclination: 81.1603 deg

SMA: 7179.181 km

Apoapsis: 865.9 km

Periapsis: 736.191 km

RAAN: 185.9677 deg

Eccentricy: 0.00903367

Argument of periapsis: 26.1424 deg

Mean anomaly: 334.4275 deg

Mean motion: 14.27218422 rev/day

Mean motion (dot): 0.00000199 rev/day2

B* drag term: 0.000072854861 1/REarth

Two-line elements (TLE)

Creation date: Dec. 12, 2025, 10:14 a.m.

Reference frame: TEME

Reference center: EARTH

Epoch: Dec. 12, 2025, 6:06 a.m. UTC

TLE line 0: 0 METEOR 2-10

TLE line 1: 1 14452U 83109A 25346.25433415 .00000199 00000-0 72855-4 0 9994

TLE line 2: 2 14452 81.1603 185.9677 0090337 26.1424 334.4275 14.27218422190754

Live tracking on map

Real-time ground track for satellite METEOR 2-10.

In-orbit conjunctions

A list of the most updated potential collisions computed for object METEOR 2-10.

Target Orbit TCA Probability of collision Miss distance Type
NOAA 16 DEB SSO 2025-10-08 14:20:26 0.0003023223 174.0 (m) DEBRIS
FENGYUN 1C DEB SSO 2025-10-03 01:26:27 0.0002343091 206.0 (m) DEBRIS
FENGYUN 1C DEB SSO 2025-06-20 13:29:57 0.0001019355 1000.0 (m) DEBRIS
NOAA 16 DEB SSO 2025-04-30 16:56:27 0.0001304968 326.0 (m) DEBRIS
DELTA 1 DEB SSO 2024-12-07 02:12:16 0.0002346025 245.0 (m) DEBRIS

Associated space launch

Second generation soviet meteorological satellite

METEOR 2-10 was lifted into orbit during the mission ‘Vostok 8A92M | Meteor-2 10’, on board a Vostok 8A92M space rocket.

The launch took place on Oct. 28, 1983, 9 a.m. from 16/2.

For more information about the launch, click the button.

Launch to space Vostok 8A92M | Meteor-2 10
Vostok 8A92M | Meteor-2 10

Agency: N/A

Status: Launch Successful

Launch date: Oct. 28, 1983, 9 a.m. UTC

Rocket: Vostok 8A92M

Launch pad: 16/2

Location: Plesetsk Cosmodrome, Russian Federation

...

Latest news about this satellite

There are no fresh news available about this satellite. Check back as we update our databases every day.


Newsletter sign-up

Weekly statistics, charts and insights to help you stay on top of the space industry.